Terug naar catalogus

STARLINK-33714

ActiefCommunicatieVLEO
NORAD 63581·PAYLOAD·🇺🇸 United States

Gelanceerd Apr 14, 2025 vanaf Cape Canaveral Space Force Station

Loading…

Volgende Passages (komende 24 uur)

TLE

VersSource: CelesTrak SupGP

Epoch: Sep 14, 2026, 21:37 UTC

1 63581C 25076N   26257.90118056 -.00026523  00000+0 -96079-3 0  2575
2 63581  43.0031 332.9560 0001388 269.0132 314.1206 15.27586824    13

Volg STARLINK-33714 in realtime met AllMySat

Download on the App Store